Grand Rapids, MI

8:48 AM EDT on September 18, 2019 (GMT -0400)
Gerald R. Ford International

Weather History for KGRR - August, 2019

Change the Weather History Date:

Friday, August 23, 2019

  Actual Average Record
Temperature  
Mean Temperature 64 °F 70 °F  
Max Temperature 75 °F 80 °F 96 °F (1947)
Min Temperature 52 °F 60 °F 43 °F (1952)
Degree Days  
Heating Degree Days 1 1  
Month to date heating degree days 1 1  
Since 1 June heating degree days 50 52  
Since 1 July heating degree days 1 7  
Cooling Degree Days 0 6  
Month to date cooling degree days 177 153  
Year to date cooling degree days 626 584  
Since 1 June cooling degree days 620 537  
Growing Degree Days 14 (Base 50)    
Moisture  
Dew Point 49 °F    
Average Humidity 61    
Maximum Humidity 83    
Minimum Humidity 40    
Precipitation  
Precipitation 0.00 in 0.11 in 1.91 in (1910)
Month to date precipitation 1.97 2.64  
Year to date precipitation 28.82 23.77  
Snow  
Snow 0.00 in 0.00 in 0.00 in ()
Month to date snowfall 0.0 0.0  
Since 1 June snowfall 0.0 0.0  
Since 1 July snowfall 0.0 0.0  
Snow Depth 0.00 in    
Sea Level Pressure  
Sea Level Pressure 30.19 in    
Wind  
Wind Speed 5 mph ()    
Max Wind Speed 13 mph    
Max Gust Speed 23 mph    
Visibility 10.0 miles    
Events      
T = Trace of Precipitation, MM = Missing Value Source: Averaged Metar Reports

Daily Weather History Graph

Daily Weather History Graph

Search for Another Location

Airport or City:

Astronomy

Aug. 23, 2019 Rise Set
Actual Time 6:56 AM EDT 8:32 PM EDT
Civil Twilight 6:26 AM EDT 9:01 PM EDT
Nautical Twilight 5:50 AM EDT 9:37 PM EDT
Astronomical Twilight 5:11 AM EDT 10:16 PM EDT
Moon 12:13 AM EDT (8/23) 2:44 PM EDT (8/23)
Length of Visible Light 14h 35m
Length of Day
13h 35m
Waning Gibbous, 50% of the Moon is Illuminated
Aug 23
Waning Gibbous
Aug 30
New
Sep 5
First Quarter
Sep 14
Full
Sep 21
Last Quarter

Hourly Weather History & Observations

Time (EDT) Temp. Dew Point Humidity Pressure Visibility Wind Dir Wind Speed Gust Speed Precip Events Conditions
12:53 AM 57.9 °F 48.9 °F 72% 30.11 in 10.0 mi NNE 5.8 mph - N/A   Clear
1:53 AM 57.9 °F 48.0 °F 70% 30.12 in 10.0 mi NNE 3.5 mph - N/A   Clear
2:53 AM 57.0 °F 48.0 °F 72% 30.13 in 10.0 mi NNE 4.6 mph - N/A   Clear
3:53 AM 55.9 °F 48.0 °F 75% 30.14 in 10.0 mi North 3.5 mph - N/A   Clear
4:53 AM 55.0 °F 48.0 °F 77% 30.15 in 10.0 mi North 3.5 mph - N/A   Clear
5:53 AM 53.1 °F 48.0 °F 83% 30.16 in 10.0 mi NNE 5.8 mph - N/A   Clear
6:53 AM 53.1 °F 48.0 °F 83% 30.16 in 10.0 mi NE 8.1 mph - N/A   Partly Cloudy
7:53 AM 55.9 °F 48.9 °F 77% 30.18 in 10.0 mi NNE 3.5 mph - N/A   Partly Cloudy
8:53 AM 60.1 °F 51.1 °F 72% 30.20 in 10.0 mi ENE 4.6 mph - N/A   Partly Cloudy
9:53 AM 64.9 °F 52.0 °F 63% 30.22 in 10.0 mi NNE 4.6 mph - N/A   Partly Cloudy
11:53 AM 70.0 °F 51.1 °F 51% 30.23 in 10.0 mi NNE 5.8 mph - N/A   Scattered Clouds
12:53 PM 71.1 °F 50.0 °F 47% 30.22 in 10.0 mi NW 8.1 mph - N/A   Mostly Cloudy
1:53 PM 73.0 °F 48.0 °F 41% 30.21 in 10.0 mi NNW 5.8 mph - N/A   Mostly Cloudy
2:53 PM 73.9 °F 48.0 °F 40% 30.21 in 10.0 mi Variable 3.5 mph - N/A   Mostly Cloudy
3:53 PM 73.9 °F 48.0 °F 40% 30.19 in 10.0 mi NE 9.2 mph - N/A   Mostly Cloudy
4:53 PM 73.0 °F 48.0 °F 41% 30.19 in 10.0 mi ENE 8.1 mph - N/A   Mostly Cloudy
5:53 PM 73.9 °F 48.0 °F 40% 30.19 in 10.0 mi ENE 8.1 mph - N/A   Scattered Clouds
6:53 PM 72.0 °F 48.0 °F 43% 30.21 in 10.0 mi NE 6.9 mph - N/A   Scattered Clouds
7:53 PM 69.1 °F 50.0 °F 51% 30.20 in 10.0 mi East 4.6 mph - N/A   Partly Cloudy
8:53 PM 66.0 °F 50.0 °F 56% 30.20 in 10.0 mi Calm Calm - N/A   Partly Cloudy
9:53 PM 63.0 °F 52.0 °F 67% 30.22 in 10.0 mi NE 4.6 mph - N/A   Scattered Clouds
10:53 PM 62.1 °F 51.1 °F 67% 30.24 in 10.0 mi ENE 6.9 mph - N/A   Scattered Clouds
11:53 PM 60.1 °F 51.1 °F 72% 30.25 in 10.0 mi East 4.6 mph - N/A   Partly Cloudy